Starlink 5176

operational
NORAD ID: 54053 Int'l Des: 2022-136 Owner: SPXS Country: US Constellation: starlink
LEOCIRCULAR

Über Starlink 5176

Beschreibung wird geladen...

Live-Position

3D-Globus wird geladen...

Nächste Überflüge

Höhenverlauf

Altitude vs Time

uPlot chart will show altitude changes over time

Zweizeiliger Elementsatz

1 54053U 22136C 25350.31063911 .00001616 00000-0 11959-3 0 9992
2 54053 53.2191 358.6304 0001358 84.9955 275.1192 15.08834462174253
Epoch: 16. Dez. 2025 • Age: 21 hours

Aktueller Status

Höhe 541.7 km
Geschwindigkeit 7.59 km/s
Subsatellitenpunkt -5.39°S, 18.37°E
Startdatum 20. Okt. 2022
Alter 3.1 years
Typ internet

Technische Details

Klassifizierung Payload
Masse 305.00 kg
Trockenmasse 290.00 kg
Gesamtmasse 305.00 kg
Länge 0.20 m
Durchmesser 2.80 m
Spannweite 9.00 m
Form Box + pan
Hersteller SPXS
Bus-Typ Starlink
Phasenstatus In Orbit
Besitzer/Staat SPXS/US

Große Konstellationen

Loading constellations...